Find Nanosat 1B

NORAD ID: 35685 Int'l Des: 2009-041 Owner: INTA Country: E operational
LEOCIRCULARRETROGRADESSO

リアルタイム位置

3D地球を読み込み中...

Nanosat 1Bについて

説明を読み込み中...

次回通過

Passes for default location (London). Set your location on the main map for personalized predictions.

高度履歴

Loading altitude history...

軌道要素

1 35685U 09041E 26107.29999732 .00000698 00000-0 71867-4 0 9993
2 35685 98.1082 224.1067 0049634 6.5712 353.6146 14.92883581905333
Epoch: Apr 17, 2026 • Age: 12 hours

現在のステータス

高度 620.1 km
速度 7.54 km/s
衛星直下点 34.49°N, 82.32°W
打ち上げ日 Jul 29, 2009
運用期間 16.7 years
タイプ other

技術仕様

分類 Payload
質量 22.00 kg
乾燥質量 22.00 kg
総質量 22.00 kg
長さ 0.50 m
直径 0.50 m
スパン 1.00 m
形状 Poly + Ant
製造者 INTA
バスタイプ Nanosat
フェーズステータス In Orbit
所有者/国 INTA/E

Most Searched